{"data":{"norad_id":67735,"intl_designator":"2026-026Q","name":"STARLINK-36691","alt_names":[],"object_type":"PAYLOAD","status":"ACTIVE","operator":null,"country":"US","launch_date":"2026-02-11","launch_site_code":"AFWTR","launch_vehicle":null,"mission":null,"orbit_class":"UNKNOWN","rcs_meters":null,"size_class":null,"mass_kg":null,"dimensions":null,"purposes":["comms"],"wikipedia_slug":null,"has_3d_model":false,"image_url":null,"decayed_at":null,"tle_current":{"epoch":"2026-09-19T03:22:07.790016Z","epoch_age_seconds":183901,"freshness":"STALE","line1":"1 67735U 26026Q   26262.14036794  .00011209  00000+0  34900-3 0  9997","line2":"2 67735  97.2868 314.0150 0000282 151.8370 208.2888 15.33446604 33773","mean_motion":15.33446604,"eccentricity":2.82e-5,"inclination_deg":97.2868,"raan_deg":314.015,"arg_perigee_deg":151.837,"mean_anomaly_deg":208.2888,"bstar":0.000349,"rev_number":3377,"period_min":93.906106430035,"perigee_km":465.34541046046,"apogee_km":465.73139375314,"semimajor_km":6843.6754021068,"source":"CELESTRAK","updated_at":"2026-09-20T09:00:43.659347Z"}}}